Location: Newark
(50.0306°N, 2.3272°E)
Time: 11:49:35
(UTC+00:00)

Vanguard 1 Rocket - Pass Details

Date: 14 December 2019
Orbit: 650 x 4226 km, 34.3° (Epoch: 26 January)

Event Time Altitude Azimuth Distance (km) Brightness Sun altitude
Rises 01:04:33 0° 268° (W) 5,753 - -59.0°
Reaches altitude 10° 01:10:49 10° 249° (WSW) 3,951 - -58.4°
Maximum altitude 01:15:44 15° 218° (SW) 2,935 - -57.8°
Drops below altitude 10° 01:19:29 10° 185° (S) 2,858 - -57.4°
Sets 01:22:52 0° 161° (SSE) 3,435 - -57.1°
